Location: Stanford
(52.2833°N, 2.4333°W)
Time: 02:08:29
(UTC+00:00)

CZ-4B R/B - Pass Details

Date: 22 January 2021
Orbit: 387 x 458 km, 97.6° (Epoch: 28 February)

Event Time Altitude Azimuth Distance (km) Brightness Sun altitude
Exits shadow 18:15:04 11° 19° (NNE) 1,523 3.8 -14.4°
Maximum altitude 18:18:18 69° 103° (ESE) 479 1.3 -14.8°
Drops below altitude 10° 18:21:36 10° 187° (S) 1,539 4.3 -15.3°
Sets 18:23:35 0° 190° (S) 2,388 5.4 -15.6°
